GFSNE_sfc_dewp_000.txt.gz
Dewpoint
33 33 34 35 35 36 38 35 33 29 30 31 31 34 35 37 38 41 42 46 45 44 44 45 45 45 41 39 39 40 43 45 47 47 46 45 45 47
33 33 33 34 34 34 35 36 34 33 29 31 30 29 31 30 33 36 38 41 44 44 43 43 41 42 40 39 38 40 39 41 43 44 45 43 41 40
29 27 26 26 26 27 27 28 32 34 31 29 30 27 26 26 26 29 35 35 41 41 41 42 41 40 40 39 37 36 36 38 39 39 39 43 43 42
24 24 23 20 21 22 23 23 25 25 28 27 25 24 23 25 25 27 27 27 37 36 41 42 41 39 39 38 38 37 36 36 37 38 38 38 39 40
22 22 22 21 20 20 21 23 24 23 24 23 22 24 23 24 23 27 27 27 27 35 35 40 40 39 39 38 38 38 38 37 36 38 38 38 39 39
22 22 22 20 20 22 23 24 24 24 23 21 22 21 22 22 25 25 25 25 26 28 31 32 34 38 39 39 39 39 38 38 38 38 38 38 38 38
21 20 19 21 22 23 24 29 27 24 21 20 19 20 19 19 20 23 23 23 24 29 28 28 28 29 33 34 37 39 39 39 39 39 39 38 38 38
19 19 20 21 22 24 25 25 25 25 25 24 19 18 17 18 21 21 20 21 20 26 26 25 27 26 28 32 37 36 36 36 36 37 38 39 39 38
21 20 20 18 22 24 25 25 24 25 25 25 24 22 20 20 21 20 20 21 21 25 26 24 26 25 26 27 34 33 32 33 33 33 33 36 37 37
22 22 21 20 20 20 21 25 24 24 23 22 22 23 24 24 23 23 22 24 26 27 27 22 24 23 25 27 31 35 33 32 33 33 34 33 34 35
21 21 20 21 23 26 25 23 22 21 22 24 26 27 28 29 29 27 26 25 22 22 25 24 22 20 20 22 25 32 33 34 35 34 34 34 34 34
20 20 21 20 23 25 25 24 21 20 21 21 22 23 23 23 23 24 25 24 24 20 22 22 21 21 18 21 22 23 23 30 33 35 35 35 35 32
18 19 20 23 23 22 23 24 23 24 24 24 22 21 21 21 22 23 24 23 22 22 25 25 23 22 21 21 21 23 22 22 23 29 34 35 36 35
19 20 22 21 23 24 24 25 24 24 23 21 21 20 21 22 24 25 27 27 26 25 25 27 26 24 21 18 21 23 22 22 20 26 25 30 33 34
21 21 19 20 21 23 22 24 23 22 21 19 21 23 24 26 27 27 27 28 29 30 30 29 30 27 25 24 20 22 21 22 19 22 22 23 25 25
20 20 20 20 19 21 21 22 22 22 21 20 21 23 25 26 26 27 27 27 27 26 29 30 30 30 29 28 28 25 24 23 21 22 30 30 30 31
15 14 16 16 15 16 16 18 19 21 20 21 21 21 23 25 25 27 26 27 24 22 24 27 28 29 30 28 27 26 25 22 21 23 24 25 24 27
13 11 9 9 13 14 13 14 16 18 19 19 19 20 21 22 23 24 25 23 23 22 22 26 27 28 29 28 30 27 26 26 21 23 26 27 26 23
9 11 7 8 9 14 13 13 13 15 18 17 17 18 19 21 21 21 19 18 18 23 23 22 25 28 25 20 23 29 27 27 26 17 21 27 27 23
9 9 9 11 12 13 13 12 12 11 11 13 14 15 16 19 18 18 18 16 20 22 22 20 19 22 18 17 18 14 25 26 27 25 25 24 25 29
7 9 9 10 12 12 8 8 7 8 8 8 11 13 14 17 17 19 17 14 13 19 18 17 19 21 22 22 16 13 12 25 21 14 16 14 15 19
2 6 7 9 8 9 6 5 7 3 6 8 8 9 11 14 15 16 15 12 14 11 14 18 22 24 20 20 15 9 13 12 20 25 25 22 16 15
-0 3 1 -0 3 6 11 7 6 3 5 6 7 8 8 10 14 15 13 12 14 12 13 17 18 20 22 20 15 18 11 9 20 16 13 22 25 25

GFSNE_sfc_dewp_006.txt.gz
Dewpoint
30 30 30 30 29 27 30 28 26 20 17 21 28 33 33 35 34 34 35 37 42 43 42 42 43 46 45 43 42 39 38 44 47 51 53 50 48 48
31 30 26 27 26 26 25 26 26 22 18 22 22 29 31 30 30 33 32 34 38 41 40 42 42 42 45 46 45 42 39 43 46 48 48 46 45 45
25 24 23 23 23 24 23 22 21 22 19 19 22 24 25 31 28 32 33 30 33 36 38 40 40 40 42 44 43 44 41 43 45 47 47 46 44 45
22 22 22 19 20 20 20 19 19 20 21 21 22 23 25 28 27 29 31 29 27 33 38 39 39 40 40 41 41 42 40 40 41 42 44 45 46 46
22 21 21 21 20 19 19 19 20 22 26 26 25 24 24 25 25 27 28 28 23 28 32 36 38 39 39 41 42 40 38 39 39 40 40 40 42 42
22 22 22 21 20 19 20 20 22 22 22 24 24 24 24 24 23 24 22 25 22 20 28 31 33 35 37 39 40 39 39 38 38 38 39 38 37 38
22 22 21 23 25 23 19 20 20 22 22 23 21 22 24 21 19 22 20 21 22 25 27 27 27 30 33 36 37 39 38 38 38 39 39 38 37 38
24 23 23 22 21 21 22 22 21 21 21 22 21 21 22 25 26 22 20 19 15 25 26 25 27 25 26 31 35 37 38 38 37 38 38 38 38 38
19 18 17 15 19 20 22 22 23 25 27 26 23 22 24 24 22 22 21 20 19 21 25 23 26 24 26 24 31 34 34 34 35 36 36 37 37 37
17 18 17 18 19 19 23 24 21 22 22 21 22 23 24 26 23 22 22 21 23 24 27 24 24 25 26 28 30 31 34 33 33 33 33 33 34 35
18 18 18 18 20 24 22 22 20 19 20 22 22 22 23 24 27 26 24 22 21 19 26 25 23 25 24 27 29 31 33 34 34 33 34 34 34 34
20 18 19 19 21 21 24 21 20 20 21 23 22 22 23 23 23 22 23 24 23 21 23 23 22 22 21 24 25 27 28 29 32 33 34 34 34 33
18 18 19 21 19 18 21 22 23 22 21 21 21 22 23 22 21 21 22 22 21 21 23 24 23 23 22 23 25 26 27 28 29 28 30 34 35 34
17 19 19 18 17 17 17 21 22 21 20 20 20 20 21 22 23 25 24 23 23 21 21 25 24 24 23 22 22 25 27 26 27 27 29 28 31 34
17 16 17 16 16 17 17 18 20 19 19 18 18 19 21 24 26 27 27 27 27 26 25 26 25 25 25 24 23 23 25 26 25 28 29 30 30 31
14 12 14 17 13 15 15 15 16 17 17 17 17 19 22 24 25 26 26 26 26 26 29 30 29 28 26 26 25 24 25 26 26 26 29 29 30 30
6 4 8 11 11 13 13 13 13 13 14 15 16 17 19 21 24 26 27 27 25 25 26 27 30 30 30 28 27 27 27 26 27 26 28 27 28 29
7 1 -3 -2 8 11 12 11 11 9 10 13 14 15 15 17 20 22 24 24 24 24 24 26 27 27 27 29 31 28 27 26 27 28 27 27 27 27
4 2 -5 -5 1 11 12 11 10 9 8 10 12 13 13 15 18 19 20 20 21 22 23 24 24 26 24 23 24 30 28 28 28 28 28 27 26 26
7 4 1 1 5 9 11 10 9 7 5 5 8 10 11 13 15 16 17 17 18 18 19 21 22 22 23 22 23 25 27 27 26 26 26 26 27 28
6 7 3 3 6 7 1 2 5 6 4 2 4 5 6 10 13 14 13 11 13 15 15 16 19 21 22 24 23 22 21 24 25 25 25 24 23 24
6 7 8 6 4 3 -4 -7 -0 4 6 6 4 4 4 6 9 10 11 11 12 12 13 16 20 22 23 22 20 18 20 22 24 24 24 22 23 21
6 7 6 1 -3 -3 3 -1 -1 -1 3 6 6 7 4 6 8 9 9 11 11 11 11 13 15 18 20 20 19 20 19 19 22 22 22 22 24 25

GFSNE_sfc_dewp_009.txt.gz
Dewpoint
33 32 31 30 30 28 27 27 25 23 19 18 17 20 20 22 26 29 33 34 36 38 42 42 43 45 47 45 41 39 37 43 47 50 54 54 52 51
30 32 30 27 27 27 25 25 24 22 19 16 15 18 19 17 23 25 30 34 35 36 39 41 41 42 45 46 47 44 40 40 46 48 52 52 51 50
31 28 26 25 23 22 22 19 18 17 17 16 15 19 23 24 22 24 30 32 33 33 36 39 40 40 41 44 44 44 44 42 47 49 49 48 48 48
26 25 24 21 23 23 21 19 18 18 17 15 18 22 22 25 25 27 26 25 31 34 33 38 39 40 40 41 42 42 42 42 45 47 47 48 48 48
24 24 24 23 23 22 20 19 19 17 19 20 17 18 20 22 24 25 27 28 25 30 32 34 36 38 38 40 41 41 42 40 41 41 43 44 45 46
24 25 25 24 22 21 21 23 20 21 18 18 18 16 18 18 24 23 23 24 22 18 24 28 30 33 36 38 39 40 40 40 39 40 38 38 39 41
24 22 21 23 24 22 19 20 18 18 19 18 15 16 16 16 24 26 22 22 22 23 22 24 27 28 32 37 38 40 39 39 39 39 39 37 36 38
17 16 16 17 17 20 20 21 21 20 21 20 23 16 15 18 21 25 26 23 18 25 23 20 25 25 26 29 36 38 39 38 38 39 39 38 38 37
15 14 14 13 17 16 18 20 24 23 22 23 22 17 17 17 21 22 23 22 21 21 21 18 23 21 24 21 31 35 35 38 38 38 37 37 37 37
15 15 15 16 16 18 20 20 18 16 17 19 23 21 19 19 19 24 21 21 21 21 22 21 21 25 23 24 29 31 34 33 34 35 36 36 37 37
16 16 17 16 18 22 18 18 15 14 19 21 24 25 25 24 23 23 25 23 22 16 18 20 20 25 27 27 29 29 32 34 33 33 33 33 33 34
18 16 17 18 21 19 19 19 18 18 16 17 18 18 20 20 23 22 19 23 25 20 18 20 18 20 21 28 29 30 32 30 33 34 34 33 33 29
16 14 17 19 18 18 17 19 21 20 20 19 17 17 17 19 20 21 20 20 20 20 21 24 22 23 22 25 29 31 31 31 32 29 32 34 34 32
18 16 19 17 17 17 16 17 18 19 21 20 20 19 20 21 20 22 24 24 22 20 20 23 23 21 22 23 22 27 31 31 31 27 30 29 30 34
20 17 15 16 15 13 15 16 16 18 19 19 19 19 21 23 25 26 27 26 25 25 23 24 24 22 22 22 21 25 27 28 33 31 33 32 31 32
18 16 16 16 15 14 14 14 15 15 16 18 18 20 23 25 27 29 27 29 27 26 27 28 28 27 25 23 23 24 25 26 30 31 33 33 33 34
18 18 15 15 14 12 13 13 12 11 14 17 18 19 20 22 24 27 27 28 28 28 29 30 32 32 30 28 27 25 26 27 28 30 31 30 30 33
17 17 17 16 15 12 13 12 12 10 11 15 17 18 19 20 21 23 25 26 26 27 27 28 30 30 30 31 32 29 29 28 28 29 29 28 27 30
18 18 18 17 15 12 11 11 11 11 11 14 16 17 18 19 21 21 22 22 22 23 24 26 27 27 26 26 28 30 29 28 30 31 30 29 27 29
18 18 18 18 16 12 11 11 11 12 10 11 15 16 16 18 19 19 19 20 20 19 20 21 23 24 25 27 28 29 28 31 31 31 29 29 29 28
20 19 20 18 17 16 16 15 14 13 12 11 13 14 15 16 17 17 18 17 16 15 15 17 21 23 25 28 28 27 29 25 28 30 29 27 26 26
22 21 20 19 19 18 18 16 15 15 13 11 12 14 15 15 15 16 17 17 16 16 15 17 21 24 24 24 23 25 26 28 26 25 24 25 28 24
24 23 23 22 21 20 17 17 14 15 13 11 12 13 14 13 13 15 15 15 14 14 15 17 19 21 23 22 22 24 23 25 26 25 27 24 25 25

GFSNE_sfc_dewp_012.txt.gz
Dewpoint
28 27 24 23 23 22 22 22 24 24 19 19 17 20 20 20 23 24 25 30 35 36 35 37 41 43 44 45 46 42 40 44 48 50 54 55 55 56
23 25 25 22 22 23 20 22 22 22 21 16 16 19 20 16 23 26 25 29 29 35 36 36 40 40 41 42 46 45 45 43 42 48 51 54 54 54
26 25 26 25 23 23 22 21 20 18 17 17 17 19 21 22 22 24 25 25 26 35 36 35 39 40 40 41 43 45 46 45 44 47 49 52 53 52
25 26 25 20 25 24 21 21 19 19 18 18 18 18 20 21 21 24 22 18 30 33 35 36 35 38 39 39 41 42 42 44 42 44 48 49 51 50
26 26 25 25 24 22 21 20 19 19 22 21 18 18 18 19 20 23 22 25 25 31 34 34 33 35 36 38 39 42 41 40 41 42 44 46 48 49
27 26 25 23 22 21 19 20 18 21 20 18 16 16 17 17 20 19 25 26 24 23 26 26 28 32 35 37 39 40 40 40 40 41 42 42 43 45
24 20 19 20 20 20 18 19 18 18 18 17 18 17 19 17 17 18 22 20 26 30 24 21 24 29 30 36 37 39 40 39 40 40 40 41 41 41
18 17 17 18 18 20 20 20 20 19 21 20 21 19 19 20 20 21 25 23 18 30 27 20 25 22 26 26 36 37 37 40 38 40 40 39 39 38
17 16 14 12 18 17 18 20 22 23 23 23 19 19 21 20 18 17 18 22 22 21 28 20 22 21 22 20 31 36 36 38 38 38 38 38 37 37
17 17 17 17 17 18 18 18 15 14 13 14 18 20 22 23 24 20 20 21 22 20 22 21 21 24 25 25 28 28 36 35 38 37 37 37 37 37
18 16 16 16 18 20 18 16 13 13 17 21 20 21 22 23 24 22 21 20 24 16 18 21 19 23 25 27 29 28 31 35 35 34 34 35 37 37
19 15 13 17 19 18 20 18 18 15 16 17 17 17 18 20 23 23 19 21 21 21 18 16 15 19 22 25 28 30 30 33 34 34 34 33 33 31
20 17 16 18 18 18 17 19 19 17 18 19 17 18 18 18 19 22 23 21 20 17 25 20 20 20 20 25 27 29 30 33 33 33 34 33 33 32
22 20 21 17 18 17 15 16 17 19 21 21 21 21 22 23 23 24 25 25 22 21 20 24 22 23 26 25 24 27 29 31 33 29 32 31 33 34
23 21 18 16 16 14 12 15 16 18 19 20 19 20 22 25 26 28 26 25 25 24 22 22 24 22 22 22 22 24 26 28 32 31 32 32 32 32
22 22 20 18 18 17 15 15 16 16 17 20 20 21 23 26 27 28 30 30 28 26 25 25 25 24 24 23 22 24 27 27 30 30 32 33 32 34
22 24 22 20 17 16 16 15 16 13 14 18 20 20 21 22 24 27 27 30 29 29 29 27 28 29 28 27 27 25 25 26 29 33 31 29 29 31
21 22 24 23 21 17 17 17 17 14 12 15 19 20 19 20 22 24 26 27 27 28 28 29 31 30 30 31 31 31 27 27 28 29 29 29 27 30
22 22 23 24 22 17 15 15 16 16 14 13 17 18 19 20 22 22 23 23 24 25 25 27 28 28 27 25 29 30 31 30 29 29 29 29 28 28
23 22 22 22 21 17 16 15 15 17 17 14 15 17 19 18 20 20 21 22 20 20 20 21 25 24 25 26 29 30 28 33 31 30 29 31 32 29
22 21 23 23 21 20 22 21 19 19 18 17 17 16 18 17 17 17 18 19 18 17 17 19 21 24 25 28 29 29 31 26 29 32 32 30 28 27
26 23 23 23 23 23 24 23 21 20 19 17 17 18 18 17 16 16 18 17 15 17 15 18 22 23 24 24 28 28 27 28 26 26 26 26 29 27
30 26 26 26 25 24 22 22 20 20 18 16 16 16 17 17 15 15 16 15 14 14 15 18 21 23 24 23 23 27 27 26 27 26 28 24 25 25

GFSNE_sfc_dewp_015.txt.gz
Dewpoint
30 29 26 24 24 22 21 21 24 25 20 21 21 22 21 24 26 26 28 31 33 33 33 34 36 40 41 41 42 44 47 45 45 48 52 53 55 55
25 27 27 27 26 24 21 23 22 24 22 19 18 21 22 18 24 27 26 32 30 33 33 33 35 37 39 40 40 42 45 46 46 45 46 50 52 54
26 28 27 27 26 25 25 23 22 22 21 20 18 20 22 23 22 24 25 26 26 31 35 35 35 35 36 39 39 40 42 44 46 46 45 44 50 53
27 28 26 22 26 26 22 21 21 20 20 18 20 21 22 22 23 23 21 19 24 26 35 37 36 35 36 38 39 40 41 42 43 44 45 43 46 52
28 27 28 26 24 21 21 21 19 16 20 22 21 22 21 21 20 21 19 23 20 29 35 36 35 35 35 37 39 40 41 41 41 41 41 42 45 49
30 27 24 22 21 21 18 19 18 19 18 18 17 16 19 20 23 22 20 22 23 22 31 35 32 33 35 35 38 38 40 40 41 40 40 41 42 45
25 21 20 20 19 19 17 19 18 17 16 16 17 19 18 22 19 22 22 24 23 27 32 33 30 29 32 36 37 37 37 39 40 39 40 41 41 43
21 19 19 23 21 22 22 21 20 18 18 19 16 15 18 19 19 24 23 20 18 28 28 31 29 30 27 32 36 37 37 38 39 39 39 40 40 41
20 18 16 12 19 18 21 22 22 24 25 23 19 19 21 21 22 23 23 23 19 23 28 25 27 28 25 25 33 36 36 37 39 39 39 40 39 38
20 19 18 17 18 19 17 17 15 15 14 12 17 19 19 17 17 17 18 18 19 20 21 21 24 26 28 28 28 31 36 36 36 37 39 39 39 39
21 19 17 15 21 20 18 17 14 14 16 20 19 21 23 23 22 22 22 20 22 17 23 25 23 27 28 29 31 30 35 36 34 36 34 37 38 37
21 20 18 17 19 18 19 18 18 15 12 13 16 19 20 21 25 23 21 22 21 21 24 26 24 21 22 26 30 33 34 35 35 35 35 33 32 35
21 20 20 20 18 18 19 18 19 16 17 19 20 19 20 23 23 23 24 26 24 20 22 23 21 21 20 25 31 32 34 35 36 36 35 35 33 32
23 22 24 21 18 18 18 15 17 18 22 20 21 20 21 22 22 24 24 24 25 24 21 28 26 21 29 27 23 28 32 34 36 33 36 35 33 32
25 24 21 21 18 18 15 16 19 19 18 19 21 20 21 23 25 29 31 30 24 26 22 24 26 25 22 23 24 26 26 29 36 35 36 36 35 35
26 25 23 23 22 21 21 19 18 18 15 16 19 21 23 24 25 26 28 29 32 27 27 27 26 25 23 23 22 24 26 26 31 32 36 35 36 37
24 25 23 23 20 20 19 19 19 18 16 16 18 20 21 20 22 25 26 27 29 29 30 26 26 27 26 24 25 24 25 28 28 33 31 30 31 33
23 23 24 26 24 21 20 19 19 18 17 15 17 17 18 20 20 23 24 24 25 26 27 29 30 26 27 29 31 28 26 26 28 30 30 31 29 33
23 23 25 26 24 21 19 17 17 18 18 18 16 17 18 18 20 22 22 23 22 22 23 26 27 28 27 24 27 31 30 32 30 30 29 29 28 30
23 23 24 25 24 20 19 19 19 20 19 17 18 19 19 17 19 17 19 21 20 20 20 22 27 23 23 25 28 30 28 30 33 30 30 32 32 29
24 25 28 25 24 23 24 24 23 22 21 20 19 19 20 18 16 16 17 17 19 17 16 18 20 24 24 28 28 27 29 27 29 30 33 31 28 27
28 26 26 25 26 25 26 26 24 24 22 21 20 20 20 19 18 15 17 17 15 15 14 17 23 24 24 24 26 27 27 29 27 26 26 26 28 27
30 29 30 31 31 28 25 25 23 22 21 20 19 19 19 17 18 17 16 15 14 13 13 15 19 25 26 22 23 29 26 26 26 25 27 26 26 26

GFSNE_sfc_dewp_018.txt.gz
Dewpoint
35 34 31 31 30 30 27 25 25 22 21 22 22 23 25 24 26 25 25 29 32 32 33 34 34 33 34 37 39 41 41 42 46 46 46 47 51 54
32 32 30 30 31 30 26 28 26 24 21 21 21 23 23 21 24 24 23 28 29 31 32 33 34 35 35 36 38 39 40 41 43 46 46 45 46 49
34 30 31 30 30 28 28 26 24 23 20 20 20 22 22 23 23 24 24 22 23 30 32 32 35 36 36 36 36 37 39 41 41 44 46 46 45 46
30 30 30 27 28 28 27 23 23 20 19 18 20 21 22 22 22 22 21 20 21 26 31 34 35 37 37 37 36 38 40 41 41 43 43 44 46 46
30 30 30 28 25 24 23 20 20 19 21 20 18 20 20 21 21 22 23 25 23 27 28 31 35 38 37 37 37 39 39 40 40 41 41 41 42 44
30 28 27 24 21 20 18 19 17 19 18 18 17 17 18 19 22 22 20 22 23 22 28 32 35 38 37 37 36 38 37 38 40 40 40 41 41 42
27 25 22 23 20 20 16 19 19 19 18 16 17 18 18 17 17 22 24 24 23 24 31 29 30 35 35 34 37 36 36 37 39 39 40 40 41 43
23 22 21 24 25 23 25 25 22 19 18 18 18 18 18 20 23 22 22 21 21 26 24 24 29 31 32 34 36 37 36 37 38 39 40 40 39 39
23 21 19 15 22 20 21 21 20 22 23 21 18 20 25 21 19 18 17 18 18 20 21 18 22 26 27 31 35 36 35 36 37 37 39 39 38 38
22 22 20 19 21 20 19 18 18 17 16 15 16 17 18 19 20 19 19 19 20 20 20 18 23 24 27 29 32 34 35 35 36 37 39 39 39 39
23 22 20 17 21 20 19 19 17 16 18 18 17 20 23 25 25 22 22 21 19 20 21 25 25 26 27 27 28 32 35 36 35 35 38 38 38 37
24 22 21 19 18 19 19 19 18 17 15 14 18 21 22 22 26 28 24 22 23 21 22 25 27 27 21 25 27 27 28 36 35 34 36 38 38 37
24 23 24 20 21 21 18 20 19 17 18 19 20 20 23 23 23 24 26 28 26 24 25 24 25 25 25 26 30 32 29 31 34 35 34 35 35 37
24 24 25 23 23 21 19 20 19 20 19 18 19 20 21 21 23 24 26 31 30 25 25 26 25 25 25 26 28 32 30 31 33 34 33 35 34 34
25 26 24 23 24 22 23 20 19 19 18 13 16 20 21 23 23 24 25 26 30 31 25 26 26 25 25 25 26 28 29 29 32 33 35 33 34 33
24 25 23 23 21 21 21 23 23 21 19 16 15 18 21 22 22 23 23 25 25 28 29 27 26 25 22 23 24 22 24 27 30 31 33 34 33 32
21 20 20 22 22 22 21 21 21 21 19 16 14 17 18 19 20 22 23 24 24 24 28 27 26 26 26 25 20 22 22 24 31 31 29 28 30 30
21 18 17 19 19 21 18 19 18 18 19 17 16 16 17 18 18 19 23 23 22 22 23 26 30 27 25 25 28 24 27 23 24 27 28 26 25 27
18 19 19 20 24 22 19 19 17 17 17 19 15 15 15 18 18 19 20 22 20 20 22 24 28 24 24 24 29 30 25 31 28 22 24 22 22 27
23 22 22 21 22 21 21 19 18 16 16 17 12 16 14 15 15 17 17 18 18 18 21 21 24 22 20 22 25 26 28 25 28 26 22 23 24 30
24 24 24 23 24 22 19 18 17 15 14 10 14 18 16 17 15 15 16 16 16 17 16 17 21 24 25 25 24 26 25 28 29 26 28 26 24 23
25 24 24 24 24 24 22 21 21 16 19 18 15 13 17 12 12 15 12 15 16 16 15 16 20 24 27 26 25 25 25 25 26 27 27 28 25 21
27 27 26 26 26 25 23 23 19 17 18 14 14 14 12 9 14 18 15 14 16 16 13 13 18 22 25 24 23 27 22 22 23 23 21 27 27 28

GFSNE_sfc_dewp_021.txt.gz
Dewpoint
36 33 31 31 31 29 28 26 26 21 21 23 22 24 25 25 26 26 25 28 31 32 31 31 30 31 31 32 33 35 36 38 39 41 41 44 45 47
34 31 31 32 31 30 26 27 26 24 21 22 21 22 23 21 24 24 25 27 27 31 31 33 32 31 31 32 35 35 36 37 39 40 41 43 45 46
33 32 30 31 30 28 28 26 23 22 19 20 21 22 21 22 23 24 24 22 24 28 31 32 32 33 34 35 35 36 36 35 38 40 41 42 44 46
31 30 29 28 27 26 23 20 20 20 20 18 19 19 20 21 21 22 21 21 23 26 30 31 32 33 36 36 37 37 37 37 39 39 40 42 43 44
30 29 29 27 22 21 19 18 19 18 20 19 18 19 19 20 19 21 21 23 22 26 26 29 31 32 33 35 37 37 37 38 38 39 40 40 41 41
29 28 26 21 19 18 17 17 17 19 19 18 17 17 18 19 21 19 22 25 24 23 26 29 29 30 32 35 37 36 37 37 37 37 40 40 40 42
25 23 22 22 24 20 17 17 19 19 19 18 17 17 18 18 19 23 21 21 19 22 24 23 23 27 30 33 36 37 36 36 36 37 38 40 40 40
23 22 20 22 25 25 23 23 21 19 19 19 18 17 18 20 25 22 19 16 14 21 21 20 23 21 25 29 36 36 35 35 36 38 38 40 38 39
22 20 19 21 21 19 20 20 20 21 21 20 17 16 16 18 19 18 18 19 18 19 21 18 20 21 24 25 31 34 35 35 36 37 37 39 38 37
22 21 20 19 20 19 19 18 18 18 17 16 15 15 16 18 20 20 20 20 21 22 21 18 21 22 25 27 29 32 36 35 35 36 37 38 38 37
24 23 22 18 22 19 19 18 18 18 18 20 19 22 24 25 24 25 24 24 19 19 22 21 22 25 25 27 28 30 34 35 35 34 36 37 38 36
24 22 23 20 19 19 20 18 17 16 18 17 18 19 22 23 25 24 24 24 23 21 22 23 22 24 23 24 25 26 27 34 34 35 35 36 38 37
24 23 23 22 22 23 22 20 19 19 20 19 18 19 20 22 22 23 24 25 25 25 25 25 24 23 25 25 25 28 30 32 33 34 34 34 37 38
23 24 24 25 24 24 23 23 22 22 14 16 17 16 20 20 21 23 24 25 25 26 31 28 24 23 20 22 25 28 31 27 32 34 33 34 34 36
23 23 26 26 25 25 26 25 22 18 14 9 13 15 17 20 22 23 23 23 25 26 26 30 26 25 23 24 23 26 27 30 32 33 32 32 32 32
22 23 23 24 20 21 21 22 22 20 18 13 13 15 18 19 19 21 20 23 23 22 25 29 27 25 21 22 24 25 26 26 31 32 33 32 32 32
18 18 19 18 19 21 20 20 20 19 16 12 11 12 16 18 18 20 20 23 20 20 23 25 29 27 24 24 20 23 23 24 29 32 31 32 32 32
25 18 13 11 14 19 18 17 15 16 16 15 10 13 13 13 17 18 20 21 20 20 20 24 24 25 27 25 26 24 21 22 24 27 30 28 30 31
16 15 12 13 15 20 20 18 15 14 14 14 11 9 11 14 14 17 18 18 18 18 20 23 22 18 17 18 27 29 20 25 27 24 24 25 25 30
19 18 17 18 19 21 20 19 15 12 12 12 7 4 5 10 10 13 16 13 16 18 17 18 20 21 17 14 20 24 29 21 23 27 20 22 27 29
22 22 21 21 21 22 21 18 13 9 7 4 4 6 6 9 8 13 11 14 14 16 14 15 17 22 25 22 19 23 20 28 28 28 27 22 21 21
24 23 24 24 24 24 24 20 16 13 10 7 6 4 2 4 5 6 8 7 15 16 15 14 17 21 27 26 24 20 20 18 24 27 28 29 25 18
27 25 25 25 24 22 24 22 21 18 16 13 11 6 -1 6 6 7 7 13 13 15 14 13 15 19 24 23 24 25 21 21 22 20 19 27 28 29

GFSNE_sfc_dewp_024.txt.gz
Dewpoint
35 35 33 31 31 30 29 27 26 20 21 22 22 23 24 24 25 25 24 27 27 27 28 30 29 30 30 30 32 33 34 36 34 37 38 40 40 40
33 33 31 33 31 31 27 28 26 25 22 21 20 21 22 20 23 24 24 25 26 27 29 29 29 30 30 31 31 34 34 36 36 35 35 37 40 41
33 32 32 31 30 28 27 24 22 21 19 19 20 21 20 21 21 23 23 22 24 25 27 27 29 30 31 32 34 35 35 36 36 37 36 38 40 41
30 30 29 28 27 25 22 19 19 18 19 17 18 18 19 19 20 21 20 21 22 25 26 26 28 28 31 32 32 34 36 36 37 37 37 38 38 42
30 29 29 27 24 22 19 18 18 17 19 18 17 18 18 19 19 21 22 21 24 24 22 23 27 28 27 27 30 34 36 36 38 37 38 37 37 40
28 27 25 22 19 18 17 16 17 18 19 18 18 18 18 18 20 20 22 22 20 18 20 22 24 25 25 26 29 32 37 37 37 36 36 36 36 39
25 22 21 22 25 20 17 18 19 19 19 18 18 18 17 18 18 21 22 19 18 19 19 23 20 23 25 25 27 30 35 36 36 35 36 36 38 39
23 22 20 22 25 26 24 22 20 18 18 18 18 16 16 15 20 18 18 17 17 20 20 20 22 21 22 24 27 31 31 36 36 36 36 36 38 38
24 20 19 21 22 19 20 19 18 18 18 19 16 16 15 15 16 18 19 20 19 20 22 20 21 21 22 23 27 29 32 33 35 35 36 35 38 37
23 21 21 20 20 19 18 17 17 18 18 16 18 17 17 19 22 23 25 25 23 22 22 20 20 21 23 25 28 30 32 33 36 35 35 35 36 37
24 23 22 20 22 22 19 18 17 17 17 20 20 22 22 23 24 25 22 22 19 20 22 24 21 22 23 25 26 31 32 34 35 34 35 34 36 36
24 23 24 20 24 22 21 20 17 16 17 18 18 18 20 21 23 23 23 21 21 19 23 24 22 21 20 25 25 24 28 32 33 34 35 35 36 36
25 23 23 24 23 24 24 21 19 19 20 21 18 18 18 20 21 21 23 23 22 21 23 27 25 22 22 22 24 24 27 31 31 32 35 34 34 36
24 24 24 25 25 26 24 25 25 24 18 16 16 17 17 17 18 20 23 23 24 24 24 26 27 23 20 19 20 24 27 29 31 33 33 34 33 37
24 23 24 25 26 25 26 26 23 20 15 9 15 15 16 18 20 21 21 22 23 25 23 30 29 26 24 23 21 24 25 26 31 32 32 32 32 32
23 24 22 24 20 21 21 23 22 20 19 15 12 13 16 17 17 19 19 20 22 21 23 25 26 28 25 25 23 23 26 24 28 32 32 32 32 32
23 19 18 18 20 21 20 20 20 18 16 12 11 12 14 16 17 18 19 20 15 18 19 21 24 29 25 24 19 23 24 25 26 29 31 31 31 32
24 20 19 18 19 19 17 17 16 15 16 15 11 12 11 12 14 17 19 17 17 18 19 21 20 19 22 22 26 23 22 25 27 28 30 29 29 31
25 24 22 18 18 18 18 18 18 16 15 15 13 9 8 12 11 14 15 16 16 17 19 20 20 17 17 8 22 29 25 24 24 26 25 27 28 29
26 22 20 19 18 18 19 19 19 14 13 13 11 3 -1 7 7 10 12 7 14 16 16 16 16 17 18 18 17 19 28 25 21 22 23 26 28 29
25 24 23 20 20 20 20 18 15 15 13 9 8 6 -2 7 6 8 7 9 8 16 14 12 14 19 22 24 16 17 22 28 28 25 27 24 23 22
25 25 25 24 22 22 21 20 17 15 16 11 7 4 -1 2 3 3 2 8 11 11 15 14 16 22 25 25 21 16 22 16 22 27 29 27 24 20
28 27 26 26 25 24 24 24 22 21 19 17 13 10 1 3 5 2 2 12 12 11 13 13 15 17 19 22 22 23 20 20 18 18 18 27 28 29

GFSNE_sfc_dewp_027.txt.gz
Dewpoint
35 33 34 32 31 30 29 27 27 22 21 22 22 23 23 23 23 23 24 25 25 25 27 27 28 30 30 31 31 32 33 33 34 35 38 38 39 39
33 33 32 31 31 30 27 27 27 27 25 23 20 20 21 20 21 22 23 25 26 27 25 26 27 29 30 30 31 31 32 33 34 35 37 38 39 38
32 32 31 31 30 29 28 25 22 21 19 18 20 20 19 19 19 21 23 22 23 25 27 27 26 26 27 29 31 31 31 33 34 35 36 36 37 37
29 30 30 29 28 27 24 21 19 18 18 16 18 18 18 18 19 20 20 20 22 25 25 24 24 24 24 30 29 28 29 31 32 34 36 36 36 36
30 29 29 29 26 23 21 19 18 17 19 18 18 19 19 19 18 20 21 21 22 23 22 22 23 24 25 26 26 27 27 31 36 36 37 37 36 37
29 29 28 26 22 20 19 17 16 17 18 18 18 17 18 19 20 19 17 19 18 17 21 22 23 25 26 25 25 26 28 31 33 35 36 36 37 36
26 23 23 23 24 21 17 17 18 19 18 17 16 17 17 16 15 15 16 17 19 20 20 20 21 23 23 25 26 27 28 30 31 35 35 35 35 34
24 23 21 24 27 28 26 25 21 18 17 17 17 16 15 15 16 16 18 18 17 21 21 21 22 21 22 23 26 27 28 29 31 32 33 35 34 34
24 23 20 19 25 24 25 23 20 20 20 18 16 16 16 16 17 18 20 21 20 22 23 20 21 20 21 22 27 29 30 30 32 34 34 36 34 34
24 22 21 20 22 20 18 18 17 18 17 16 17 18 18 19 20 21 25 24 23 22 22 20 20 21 22 24 27 31 31 32 34 36 36 34 33 34
24 23 22 21 23 25 21 19 18 18 17 20 20 21 22 22 21 21 20 20 18 18 20 22 21 21 23 24 26 28 30 30 31 32 33 34 33 35
24 24 28 24 24 25 22 20 19 19 17 16 18 20 20 20 21 20 21 20 18 17 21 21 20 24 21 22 24 25 24 29 30 31 32 33 35 34
24 24 24 27 25 26 24 22 21 20 20 20 21 20 18 18 18 19 21 21 19 18 21 23 23 24 25 22 22 23 23 26 28 31 32 34 36 35
24 24 25 26 26 25 25 26 26 24 18 17 16 18 17 17 16 18 20 21 22 22 23 24 24 26 24 19 19 20 23 27 27 29 32 34 34 34
25 25 26 27 27 26 27 28 24 19 14 9 15 16 16 17 18 20 20 20 21 23 23 24 24 26 27 23 21 21 23 26 28 29 31 32 32 32
26 27 26 26 23 24 22 24 22 20 19 16 14 13 15 16 16 18 18 19 19 20 21 23 24 26 26 25 24 22 22 24 26 28 31 32 32 32
29 26 25 23 23 23 22 21 20 18 16 11 10 12 14 16 15 17 17 17 11 16 18 20 22 22 25 26 21 23 23 24 26 28 30 31 32 32
27 22 22 23 22 22 21 20 16 16 18 16 9 12 14 11 13 16 17 14 14 15 17 19 20 18 20 20 28 26 23 24 26 28 29 29 29 31
27 24 22 23 23 23 22 21 18 17 16 15 14 12 11 10 10 13 12 13 13 15 16 18 18 17 15 15 19 28 25 26 25 23 25 26 28 28
29 26 24 25 24 23 22 21 20 18 13 13 10 10 7 7 7 9 10 5 9 14 16 15 15 16 17 17 19 18 29 27 24 24 24 27 28 29
28 28 25 25 24 23 23 21 19 16 11 8 13 13 7 8 6 8 6 7 6 15 13 12 13 18 22 23 19 17 22 27 29 27 27 25 24 23
29 27 27 26 24 24 23 22 20 15 12 12 11 12 9 7 7 4 -1 2 10 9 13 14 15 19 23 23 20 21 22 19 24 27 28 28 22 21
29 28 27 27 26 25 24 23 22 20 18 16 16 13 8 7 8 5 0 6 11 9 11 11 14 16 16 21 22 20 21 21 19 19 19 27 29 29

GFSNE_sfc_dewp_033.txt.gz
Dewpoint
40 39 38 36 35 35 34 32 31 27 22 24 27 29 28 27 23 24 23 22 25 26 26 27 28 29 29 30 30 31 31 32 32 33 35 36 37 38
39 38 37 34 35 35 32 32 31 30 26 23 25 27 26 18 20 23 20 23 23 24 26 27 27 28 28 28 28 29 30 30 31 32 33 34 35 36
38 35 35 35 33 34 33 32 31 30 26 23 23 23 22 21 20 19 18 18 18 22 24 25 26 27 26 26 27 27 28 29 29 32 33 32 32 33
33 34 33 31 35 35 33 32 30 29 26 21 20 18 20 21 20 18 14 14 18 19 23 25 25 26 26 27 27 28 28 28 28 29 30 30 31 32
33 33 33 34 33 32 31 29 28 24 23 21 17 18 20 19 16 15 15 18 13 19 21 22 24 25 26 27 28 28 29 29 28 27 28 29 30 32
34 34 33 33 32 31 30 29 25 23 20 19 17 17 17 17 16 12 13 15 14 14 20 22 23 24 25 26 28 28 28 29 29 28 28 30 32 32
34 32 33 33 33 32 27 26 23 21 19 18 17 16 15 14 10 14 14 14 16 17 18 19 19 19 21 23 24 26 27 29 29 30 29 30 31 33
32 32 31 33 33 32 30 28 24 22 21 19 17 16 16 15 13 16 17 15 13 17 17 16 18 18 18 20 23 26 27 29 32 31 32 31 32 34
32 31 29 25 27 25 29 32 28 25 25 22 20 18 19 14 15 15 15 16 15 16 18 16 17 17 18 17 25 26 27 29 30 30 30 31 32 33
32 31 30 29 26 25 23 24 24 24 24 20 20 20 17 15 18 18 20 19 16 15 16 15 17 19 20 22 26 26 28 29 29 29 29 30 30 31
31 30 29 28 29 28 24 23 22 21 22 23 23 25 22 23 24 22 20 18 19 13 14 17 17 19 21 23 25 25 28 28 28 28 29 29 30 31
31 28 29 27 29 29 28 27 24 20 20 19 20 19 21 21 23 23 18 19 18 16 14 17 17 18 19 20 24 27 28 28 28 28 29 30 30 32
30 29 29 29 29 29 29 29 29 25 23 21 19 16 18 20 20 20 19 19 19 16 16 18 18 19 20 22 23 26 28 28 29 27 28 30 31 30
31 31 32 30 30 31 30 29 29 27 27 26 24 22 22 22 19 19 19 20 19 18 18 19 21 21 22 21 21 25 28 28 29 28 32 32 32 33
34 33 31 30 30 29 30 29 29 29 29 27 25 23 23 21 20 22 21 20 17 19 16 19 22 21 21 20 20 23 27 26 30 30 32 33 33 34
31 33 32 30 29 30 29 31 32 31 29 28 27 25 24 25 24 23 22 21 20 19 17 18 19 21 21 19 19 24 25 24 27 30 32 33 34 33
33 33 33 31 29 29 29 30 29 31 29 29 28 27 24 23 23 23 22 20 20 19 20 18 18 18 19 19 22 24 25 25 27 29 31 32 33 33
29 30 32 32 30 29 29 28 28 28 28 28 28 27 25 23 23 22 21 20 18 17 18 18 19 19 19 23 26 24 23 24 26 28 30 30 30 32
29 28 32 32 32 29 29 28 27 28 29 28 27 27 26 24 24 22 22 20 19 17 17 18 17 18 19 19 21 22 24 25 26 28 29 30 30 31
26 28 29 31 31 28 28 27 27 29 28 27 27 28 27 25 24 22 22 21 19 17 16 15 14 16 19 20 21 25 25 27 27 28 28 30 32 31
17 17 19 26 31 29 30 29 29 29 29 28 28 27 27 24 24 23 22 18 18 16 14 15 14 17 19 25 22 23 28 28 29 29 28 28 28 30
15 15 17 20 23 32 31 29 29 28 28 27 27 27 27 25 24 23 23 22 18 18 16 16 13 16 19 21 21 25 25 29 29 28 27 29 28 26
13 13 15 17 19 19 25 31 30 29 29 28 26 26 26 23 24 24 24 21 19 17 16 15 13 16 17 20 22 25 24 25 26 27 27 27 28 28